This is the latest recevied weather packets stored in our database for station/object WD7OO. If no packets are shown the sender has not sent any weather packets the latest 10 day(s).
| Time | Temp. | Humidity | Pressure | Rain* | Wind** | Luminosity | Snow |
|---|---|---|---|---|---|---|---|
| 1777209401 | 10° C | 90% | 1019.8 hPa | 0 mm | - | 72 W/m² | - |
| 1777209097 | 10° C | 90% | 1019.7 hPa | 0 mm | - | 74 W/m² | - |
| 1777208793 | 10° C | 89% | 1019.8 hPa | 0 mm | - | 71 W/m² | - |
| 1777208490 | 10° C | 89% | 1019.8 hPa | 0 mm | - | 72 W/m² | - |
| 1777208187 | 10° C | 89% | 1019.8 hPa | 0 mm | - | 64 W/m² | - |
| 1777207882 | 10° C | 89% | 1019.7 hPa | 0 mm | - | 65 W/m² | - |
| 1777207577 | 10° C | 90% | 1019.9 hPa | 0 mm | - | 61 W/m² | - |
| 1777207272 | 10° C | 89% | 1019.8 hPa | 0 mm | - | 63 W/m² | - |
| 1777206967 | 10° C | 89% | 1019.8 hPa | 0 mm | - | 55 W/m² | - |
| 1777206663 | 10° C | 89% | 1019.7 hPa | 0 mm | - | 48 W/m² | - |
| 1777206358 | 10° C | 89% | 1019.4 hPa | 0 mm | - | 48 W/m² | - |
| 1777206054 | 10° C | 89% | 1019.7 hPa | 0 mm | - | 46 W/m² | - |
| 1777205750 | 10° C | 89% | 1019.4 hPa | 0 mm | - | 44 W/m² | - |
| 1777205447 | 10° C | 89% | 1019.7 hPa | 0 mm | - | 39 W/m² | - |
| 1777205142 | 10° C | 89% | 1019.7 hPa | 0 mm | - | 35 W/m² | - |
| 1777204839 | 10° C | 89% | 1019.6 hPa | 0 mm | - | 30 W/m² | - |
| 1777204534 | 10° C | 89% | 1019.4 hPa | 0 mm | - | 29 W/m² | - |
| 1777204230 | 10° C | 89% | 1019.3 hPa | 0 mm | - | 27 W/m² | - |
| 1777203926 | 10° C | 89% | 1019 hPa | 0 mm | - | 25 W/m² | - |
| 1777203620 | 10° C | 90% | 1019 hPa | 0 mm | - | 20 W/m² | - |
| 1777203316 | 10° C | 89% | 1019 hPa | 0 mm | - | 22 W/m² | - |
| 1777203013 | 10° C | 89% | 1019.2 hPa | 0 mm | - | 19 W/m² | - |
| 1777202709 | 10° C | 90% | 1019.1 hPa | 0 mm | - | 15 W/m² | - |
| 1777202408 | 9.44° C | 90% | 1018.9 hPa | 0 mm | - | 12 W/m² | - |
| 1777202103 | 9.44° C | 90% | 1018.6 hPa | 0 mm | - | 10 W/m² | - |
* Rain latest hour (hover to see other rain measurements)
** Current wind speed in m/s (hover to see current wind gust speed)